Time,TemperatureF,DewpointF,PressureIn,WindDirection,WindDirectionDegrees,WindSpeedMPH,WindSpeedGustMPH,Humidity,HourlyPrecipIn,Conditions,Clouds,dailyrainin,SoftwareType,DateUTC
2013-02-05 00:00:00,49.6,17.0,25.42,SSW,202,0.9,0.9,27,0.00,,---,0.00,VWS V14.01,2013-02-05 06:00:00,
2013-02-05 00:05:00,50.2,16.6,25.42,SSW,202,0.9,0.9,26,0.00,,---,0.00,VWS V14.01,2013-02-05 06:05:00,
2013-02-05 00:10:00,50.7,17.1,25.42,SSW,202,0.0,0.0,26,0.00,,---,0.00,VWS V14.01,2013-02-05 06:10:00,
2013-02-05 00:15:00,50.2,16.6,25.42,SSW,202,1.3,1.3,26,0.00,,---,0.00,VWS V14.01,2013-02-05 06:15:00,
2013-02-05 00:20:00,49.1,16.6,25.42,South,180,1.1,1.1,27,0.00,,---,0.00,VWS V14.01,2013-02-05 06:20:00,
2013-02-05 00:25:00,48.7,16.3,25.42,South,180,1.1,1.1,27,0.00,,---,0.00,VWS V14.01,2013-02-05 06:25:00,
2013-02-05 00:30:00,49.3,16.7,25.42,South,180,3.8,3.8,27,0.00,,---,0.00,VWS V14.01,2013-02-05 06:30:00,
2013-02-05 00:35:00,49.8,17.2,25.42,South,180,3.1,3.1,27,0.00,,---,0.00,VWS V14.01,2013-02-05 06:35:00,
2013-02-05 00:40:00,49.5,16.9,25.42,South,180,1.6,1.6,27,0.00,,---,0.00,VWS V14.01,2013-02-05 06:40:00,
2013-02-05 00:45:00,49.5,16.9,25.42,SSW,202,1.3,1.3,27,0.00,,---,0.00,VWS V14.01,2013-02-05 06:45:00,
2013-02-05 00:50:00,49.8,17.2,25.42,South,180,2.0,2.7,27,0.00,,---,0.00,VWS V14.01,2013-02-05 06:50:00,
2013-02-05 00:55:00,49.8,17.2,25.42,South,180,2.5,2.5,27,0.00,,---,0.00,VWS V14.01,2013-02-05 06:55:00,
2013-02-05 01:00:00,48.7,16.3,25.42,SSE,158,4.9,4.9,27,0.00,,---,0.00,VWS V14.01,2013-02-05 07:00:00,
2013-02-05 01:05:00,48.9,16.4,25.42,South,180,2.0,2.9,27,0.00,,---,0.00,VWS V14.01,2013-02-05 07:05:00,
2013-02-05 01:10:00,48.9,16.4,25.42,South,180,0.9,0.9,27,0.00,,---,0.00,VWS V14.01,2013-02-05 07:10:00,
2013-02-05 01:15:00,49.3,16.7,25.42,South,180,0.0,0.0,27,0.00,,---,0.00,VWS V14.01,2013-02-05 07:15:00,
2013-02-05 01:20:00,49.6,17.0,25.42,South,180,2.0,2.0,27,0.00,,---,0.00,VWS V14.01,2013-02-05 07:20:00,
2013-02-05 01:25:00,48.9,16.4,25.42,South,180,2.7,2.7,27,0.00,,---,0.00,VWS V14.01,2013-02-05 07:25:00,
2013-02-05 01:30:00,48.6,16.1,25.45,South,180,2.7,2.7,27,0.00,,---,0.00,VWS V14.01,2013-02-05 07:30:00,
2013-02-05 01:35:00,48.9,16.4,25.45,South,180,4.7,4.7,27,0.00,,---,0.00,VWS V14.01,2013-02-05 07:35:00,
2013-02-05 01:40:00,48.9,16.4,25.45,SSE,158,6.0,6.0,27,0.00,,---,0.00,VWS V14.01,2013-02-05 07:40:00,
2013-02-05 01:45:00,49.8,16.3,25.42,SSE,158,5.6,5.6,26,0.00,,---,0.00,VWS V14.01,2013-02-05 07:45:00,
2013-02-05 01:50:00,50.2,16.6,25.42,South,180,3.4,3.4,26,0.00,,---,0.00,VWS V14.01,2013-02-05 07:50:00,
2013-02-05 01:55:00,48.7,15.4,25.42,South,180,1.3,1.3,26,0.00,,---,0.00,VWS V14.01,2013-02-05 07:55:00,
2013-02-05 02:00:00,48.6,15.2,25.42,South,180,1.6,1.6,26,0.00,,---,0.00,VWS V14.01,2013-02-05 08:00:00,
2013-02-05 02:05:00,49.3,15.9,25.42,SSE,158,3.6,3.6,26,0.00,,---,0.00,VWS V14.01,2013-02-05 08:05:00,
2013-02-05 02:10:00,49.3,15.9,25.42,SSE,158,4.5,4.5,26,0.00,,---,0.00,VWS V14.01,2013-02-05 08:10:00,
2013-02-05 02:15:00,49.8,16.3,25.42,SSE,158,3.8,3.8,26,0.00,,---,0.00,VWS V14.01,2013-02-05 08:15:00,
2013-02-05 02:20:00,49.3,15.9,25.42,ESE,112,3.8,4.0,26,0.00,,---,0.00,VWS V14.01,2013-02-05 08:20:00,
2013-02-05 02:25:00,46.4,14.2,25.42,SE,135,4.5,4.7,27,0.00,,---,0.00,VWS V14.01,2013-02-05 08:25:00,
2013-02-05 02:30:00,45.7,14.5,25.45,South,180,1.6,4.0,28,0.00,,---,0.00,VWS V14.01,2013-02-05 08:30:00,
2013-02-05 02:35:00,47.1,14.9,25.45,South,180,2.7,2.7,27,0.00,,---,0.00,VWS V14.01,2013-02-05 08:35:00,
2013-02-05 02:40:00,47.3,15.0,25.45,South,180,2.5,2.5,27,0.00,,---,0.00,VWS V14.01,2013-02-05 08:40:00,
2013-02-05 02:45:00,46.9,14.7,25.42,South,180,1.6,1.6,27,0.00,,---,0.00,VWS V14.01,2013-02-05 08:45:00,
2013-02-05 02:50:00,47.8,15.5,25.42,South,180,1.6,1.6,27,0.00,,---,0.00,VWS V14.01,2013-02-05 08:50:00,
2013-02-05 02:55:00,48.2,15.8,25.42,South,180,4.7,4.7,27,0.00,,---,0.00,VWS V14.01,2013-02-05 08:55:00,
2013-02-05 03:00:00,48.7,15.4,25.42,South,180,3.8,3.8,26,0.00,,---,0.00,VWS V14.01,2013-02-05 09:00:00,
2013-02-05 03:05:00,48.2,15.8,25.42,SSE,158,5.4,5.6,27,0.00,,---,0.00,VWS V14.01,2013-02-05 09:05:00,
2013-02-05 03:10:00,48.0,15.6,25.42,South,180,5.6,5.6,27,0.00,,---,0.00,VWS V14.01,2013-02-05 09:10:00,
2013-02-05 03:15:00,48.7,15.4,25.42,South,180,4.7,4.7,26,0.00,,---,0.00,VWS V14.01,2013-02-05 09:15:00,
2013-02-05 03:21:00,49.1,15.7,25.42,SSE,158,5.4,5.6,26,0.00,,---,0.00,VWS V14.01,2013-02-05 09:21:00,
2013-02-05 03:26:00,49.1,15.7,25.42,SSE,158,6.3,6.3,26,0.00,,---,0.00,VWS V14.01,2013-02-05 09:26:00,
2013-02-05 03:31:00,49.1,15.7,25.42,SSE,158,6.0,6.0,26,0.00,,---,0.00,VWS V14.01,2013-02-05 09:31:00,
2013-02-05 03:36:00,49.5,16.9,25.42,SE,135,5.8,5.8,27,0.00,,---,0.00,VWS V14.01,2013-02-05 09:36:00,
2013-02-05 03:41:00,48.7,16.3,25.42,SE,135,5.4,5.4,27,0.00,,---,0.00,VWS V14.01,2013-02-05 09:41:00,
2013-02-05 03:46:00,48.2,15.8,25.42,South,180,5.4,5.4,27,0.00,,---,0.00,VWS V14.01,2013-02-05 09:46:00,
2013-02-05 03:51:00,48.4,16.0,25.42,SSE,158,4.9,4.9,27,0.00,,---,0.00,VWS V14.01,2013-02-05 09:51:00,
2013-02-05 03:56:00,48.4,16.0,25.42,SSE,158,5.8,5.8,27,0.00,,---,0.00,VWS V14.01,2013-02-05 09:56:00,
2013-02-05 04:01:00,48.2,16.6,25.42,South,180,6.0,6.0,28,0.00,,---,0.00,VWS V14.01,2013-02-05 10:01:00,
2013-02-05 04:06:00,48.6,17.0,25.42,SSW,202,4.3,4.7,28,0.00,,---,0.00,VWS V14.01,2013-02-05 10:06:00,
2013-02-05 04:11:00,47.8,17.1,25.42,South,180,2.5,3.6,29,0.00,,---,0.00,VWS V14.01,2013-02-05 10:11:00,
2013-02-05 04:16:00,47.1,16.5,25.42,South,180,2.2,2.7,29,0.00,,---,0.00,VWS V14.01,2013-02-05 10:16:00,
2013-02-05 04:21:00,47.5,18.4,25.42,South,180,4.9,4.9,31,0.00,,---,0.00,VWS V14.01,2013-02-05 10:21:00,
2013-02-05 04:26:00,47.1,19.5,25.42,South,180,5.8,5.8,33,0.00,,---,0.00,VWS V14.01,2013-02-05 10:26:00,
2013-02-05 04:31:00,46.4,20.2,25.42,South,180,4.0,4.0,35,0.00,,---,0.00,VWS V14.01,2013-02-05 10:31:00,
2013-02-05 04:36:00,45.7,20.9,25.42,South,180,2.5,3.1,37,0.00,,---,0.00,VWS V14.01,2013-02-05 10:36:00,
2013-02-05 04:41:00,45.1,21.1,25.42,South,180,2.9,4.0,38,0.00,,---,0.00,VWS V14.01,2013-02-05 10:41:00,
2013-02-05 04:46:00,45.1,21.7,25.42,South,180,3.6,4.7,39,0.00,,---,0.00,VWS V14.01,2013-02-05 10:46:00,
2013-02-05 04:51:00,44.4,21.0,25.42,SSW,202,3.6,3.6,39,0.00,,---,0.00,VWS V14.01,2013-02-05 10:51:00,
2013-02-05 04:56:00,44.4,21.6,25.42,South,180,3.4,3.4,40,0.00,,---,0.00,VWS V14.01,2013-02-05 10:56:00,
2013-02-05 05:01:00,44.4,22.2,25.42,SSE,158,3.4,3.8,41,0.00,,---,0.00,VWS V14.01,2013-02-05 11:01:00,
2013-02-05 05:06:00,44.6,22.4,25.42,SSE,158,3.1,4.9,41,0.00,,---,0.00,VWS V14.01,2013-02-05 11:06:00,
2013-02-05 05:11:00,44.4,22.2,25.42,South,180,2.5,2.5,41,0.00,,---,0.00,VWS V14.01,2013-02-05 11:11:00,
2013-02-05 05:16:00,44.2,22.6,25.45,South,180,3.6,4.3,42,0.00,,---,0.00,VWS V14.01,2013-02-05 11:16:00,
2013-02-05 05:21:00,44.2,22.6,25.45,South,180,3.1,4.0,42,0.00,,---,0.00,VWS V14.01,2013-02-05 11:21:00,
2013-02-05 05:26:00,44.4,22.8,25.45,South,180,2.9,2.9,42,0.00,,---,0.00,VWS V14.01,2013-02-05 11:26:00,
2013-02-05 05:31:00,45.3,23.6,25.42,South,180,4.9,4.9,42,0.00,,---,0.00,VWS V14.01,2013-02-05 11:31:00,
2013-02-05 05:36:00,45.7,23.9,25.42,SSW,202,4.0,4.0,42,0.00,,---,0.00,VWS V14.01,2013-02-05 11:36:00,
2013-02-05 05:41:00,45.5,23.8,25.42,South,180,3.8,3.8,42,0.00,,---,0.00,VWS V14.01,2013-02-05 11:41:00,
2013-02-05 05:46:00,45.9,23.5,25.42,South,180,3.4,3.4,41,0.00,,---,0.00,VWS V14.01,2013-02-05 11:46:00,
2013-02-05 05:51:00,45.7,23.9,25.42,South,180,3.1,3.1,42,0.00,,---,0.00,VWS V14.01,2013-02-05 11:51:00,
2013-02-05 05:56:00,46.0,24.2,25.42,South,180,3.1,3.1,42,0.00,,---,0.00,VWS V14.01,2013-02-05 11:56:00,
2013-02-05 06:01:00,45.7,23.4,25.42,SSW,202,2.7,2.7,41,0.00,,---,0.00,VWS V14.01,2013-02-05 12:01:00,
2013-02-05 06:06:00,45.9,24.1,25.42,SSW,202,4.3,4.3,42,0.00,,---,0.00,VWS V14.01,2013-02-05 12:06:00,
2013-02-05 06:11:00,46.6,24.2,25.42,SSW,202,4.3,4.3,41,0.00,,---,0.00,VWS V14.01,2013-02-05 12:11:00,
2013-02-05 06:16:00,46.0,23.7,25.42,SSW,202,4.0,4.0,41,0.00,,---,0.00,VWS V14.01,2013-02-05 12:16:00,
2013-02-05 06:21:00,45.5,23.8,25.42,SSW,202,4.3,4.3,42,0.00,,---,0.00,VWS V14.01,2013-02-05 12:21:00,
2013-02-05 06:26:00,44.8,23.1,25.42,SSE,158,3.4,3.4,42,0.00,,---,0.00,VWS V14.01,2013-02-05 12:26:00,
2013-02-05 06:31:00,44.1,23.0,25.42,SSW,202,3.8,3.8,43,0.00,,---,0.00,VWS V14.01,2013-02-05 12:31:00,
2013-02-05 06:36:00,43.3,22.9,25.42,South,180,3.1,3.1,44,0.00,,---,0.00,VWS V14.01,2013-02-05 12:36:00,
2013-02-05 06:41:00,43.3,23.4,25.42,South,180,2.7,2.7,45,0.00,,---,0.00,VWS V14.01,2013-02-05 12:41:00,
2013-02-05 06:46:00,43.5,23.6,25.39,SSW,202,2.9,2.9,45,0.00,,---,0.00,VWS V14.01,2013-02-05 12:46:00,
2013-02-05 06:51:00,43.7,23.8,25.39,SSW,202,2.0,2.0,45,0.00,,---,0.00,VWS V14.01,2013-02-05 12:51:00,
2013-02-05 06:56:00,43.5,23.6,25.39,SSE,158,3.6,3.6,45,0.00,,---,0.00,VWS V14.01,2013-02-05 12:56:00,
2013-02-05 07:01:00,43.5,23.6,25.42,South,180,4.3,4.3,45,0.00,,---,0.00,VWS V14.01,2013-02-05 13:01:00,
2013-02-05 07:06:00,43.3,23.4,25.42,SSE,158,5.6,5.6,45,0.00,,---,0.00,VWS V14.01,2013-02-05 13:06:00,
2013-02-05 07:11:00,44.1,24.6,25.42,SSE,158,5.4,6.0,46,0.00,,---,0.00,VWS V14.01,2013-02-05 13:11:00,
2013-02-05 07:16:00,43.9,23.9,25.42,SSE,158,3.6,3.6,45,0.00,,---,0.00,VWS V14.01,2013-02-05 13:16:00,
2013-02-05 07:21:00,44.1,24.6,25.42,South,180,2.9,2.9,46,0.00,,---,0.00,VWS V14.01,2013-02-05 13:21:00,
2013-02-05 07:26:00,45.1,25.6,25.42,South,180,2.9,2.9,46,0.00,,---,0.00,VWS V14.01,2013-02-05 13:26:00,
2013-02-05 07:31:00,45.5,25.4,25.42,SSW,202,4.3,4.9,45,0.00,,---,0.00,VWS V14.01,2013-02-05 13:31:00,
2013-02-05 07:36:00,45.9,25.7,25.42,SSW,202,4.3,4.3,45,0.00,,---,0.00,VWS V14.01,2013-02-05 13:36:00,
2013-02-05 07:41:00,46.0,25.4,25.42,South,180,2.7,3.1,44,0.00,,---,0.00,VWS V14.01,2013-02-05 13:41:00,
2013-02-05 07:46:00,45.5,24.3,25.45,SSW,202,1.3,2.9,43,0.00,,---,0.00,VWS V14.01,2013-02-05 13:46:00,
2013-02-05 07:51:00,45.5,24.9,25.45,SSW,202,1.3,1.3,44,0.00,,---,0.00,VWS V14.01,2013-02-05 13:51:00,
2013-02-05 07:56:00,46.6,25.9,25.45,SSE,158,4.0,4.0,44,0.00,,---,0.00,VWS V14.01,2013-02-05 13:56:00,
2013-02-05 08:01:00,46.9,25.1,25.48,SSE,158,4.0,4.0,42,0.00,,---,0.00,VWS V14.01,2013-02-05 14:01:00,
2013-02-05 08:06:00,47.3,25.4,25.48,SSE,158,4.0,4.0,42,0.00,,---,0.00,VWS V14.01,2013-02-05 14:06:00,
2013-02-05 08:11:00,47.8,25.9,25.48,SSE,158,4.0,4.0,42,0.00,,---,0.00,VWS V14.01,2013-02-05 14:11:00,
2013-02-05 08:16:00,49.5,26.8,25.48,SSE,158,3.1,3.1,41,0.00,,---,0.00,VWS V14.01,2013-02-05 14:16:00,
2013-02-05 08:21:00,50.4,27.0,25.48,SSE,158,3.1,3.1,40,0.00,,---,0.00,VWS V14.01,2013-02-05 14:21:00,
2013-02-05 08:26:00,51.6,27.5,25.48,SSE,158,3.1,3.1,39,0.00,,---,0.00,VWS V14.01,2013-02-05 14:26:00,
2013-02-05 08:31:00,52.3,27.5,25.48,South,180,2.9,2.9,38,0.00,,---,0.00,VWS V14.01,2013-02-05 14:31:00,
2013-02-05 08:36:00,53.1,27.5,25.48,South,180,2.0,2.7,37,0.00,,---,0.00,VWS V14.01,2013-02-05 14:36:00,
2013-02-05 08:41:00,53.8,27.5,25.48,South,180,1.1,2.0,36,0.00,,---,0.00,VWS V14.01,2013-02-05 14:41:00,
2013-02-05 08:46:00,54.5,28.1,25.51,SSW,202,2.0,2.7,36,0.00,,---,0.00,VWS V14.01,2013-02-05 14:46:00,
2013-02-05 08:51:00,55.2,28.8,25.51,SW,225,4.3,4.9,36,0.00,,---,0.00,VWS V14.01,2013-02-05 14:51:00,
2013-02-05 08:56:00,56.3,29.0,25.51,SW,225,4.9,4.9,35,0.00,,---,0.00,VWS V14.01,2013-02-05 14:56:00,
2013-02-05 09:01:00,57.0,29.0,25.48,SW,225,4.3,4.3,34,0.00,,---,0.00,VWS V14.01,2013-02-05 15:01:00,
2013-02-05 09:06:00,57.4,27.8,25.48,SW,225,4.5,4.9,32,0.00,,---,0.00,VWS V14.01,2013-02-05 15:06:00,
2013-02-05 09:11:00,57.9,28.3,25.48,SW,225,4.9,4.9,32,0.00,,---,0.00,VWS V14.01,2013-02-05 15:11:00,
2013-02-05 09:16:00,58.5,28.0,25.48,SW,225,3.6,3.6,31,0.00,,---,0.00,VWS V14.01,2013-02-05 15:16:00,
2013-02-05 09:21:00,58.8,28.3,25.48,SW,225,4.3,4.9,31,0.00,,---,0.00,VWS V14.01,2013-02-05 15:21:00,
2013-02-05 09:26:00,59.5,28.1,25.48,SW,225,3.8,4.5,30,0.00,,---,0.00,VWS V14.01,2013-02-05 15:26:00,
2013-02-05 09:31:00,60.6,28.2,25.48,SW,225,4.7,5.8,29,0.00,,---,0.00,VWS V14.01,2013-02-05 15:31:00,
2013-02-05 09:36:00,61.5,29.0,25.48,WSW,248,6.0,6.0,29,0.00,,---,0.00,VWS V14.01,2013-02-05 15:36:00,
2013-02-05 09:41:00,61.3,28.0,25.48,West,270,4.9,6.5,28,0.00,,---,0.00,VWS V14.01,2013-02-05 15:41:00,
2013-02-05 09:46:00,62.6,28.2,25.48,SW,225,6.3,6.3,27,0.00,,---,0.00,VWS V14.01,2013-02-05 15:46:00,
2013-02-05 09:51:00,62.1,27.7,25.48,West,270,8.7,8.7,27,0.00,,---,0.00,VWS V14.01,2013-02-05 15:51:00,
2013-02-05 09:56:00,62.4,28.0,25.48,WNW,292,7.8,8.1,27,0.00,,---,0.00,VWS V14.01,2013-02-05 15:56:00,
2013-02-05 10:01:00,62.4,28.0,25.48,West,270,6.5,7.4,27,0.00,,---,0.00,VWS V14.01,2013-02-05 16:01:00,
2013-02-05 10:06:00,63.0,27.6,25.48,WSW,248,9.0,13.0,26,0.00,,---,0.00,VWS V14.01,2013-02-05 16:06:00,
2013-02-05 10:11:00,62.8,27.4,25.48,WSW,248,9.6,10.3,26,0.00,,---,0.00,VWS V14.01,2013-02-05 16:11:00,
2013-02-05 10:16:00,63.5,28.0,25.48,West,270,11.0,11.0,26,0.00,,---,0.00,VWS V14.01,2013-02-05 16:16:00,
2013-02-05 10:21:00,63.1,27.7,25.48,West,270,9.8,9.8,26,0.00,,---,0.00,VWS V14.01,2013-02-05 16:21:00,
2013-02-05 10:26:00,63.7,28.2,25.48,SW,225,9.8,9.8,26,0.00,,---,0.00,VWS V14.01,2013-02-05 16:26:00,
2013-02-05 10:31:00,63.9,28.3,25.48,SW,225,10.1,10.7,26,0.00,,---,0.00,VWS V14.01,2013-02-05 16:31:00,
2013-02-05 10:36:00,64.2,28.6,25.48,West,270,11.0,11.0,26,0.00,,---,0.00,VWS V14.01,2013-02-05 16:36:00,
2013-02-05 10:41:00,64.9,28.3,25.48,SW,225,11.0,11.0,25,0.00,,---,0.00,VWS V14.01,2013-02-05 16:41:00,
2013-02-05 10:46:00,64.4,27.8,25.48,WSW,248,12.5,13.2,25,0.00,,---,0.00,VWS V14.01,2013-02-05 16:46:00,
2013-02-05 10:51:00,64.8,28.1,25.48,SW,225,10.5,10.5,25,0.00,,---,0.00,VWS V14.01,2013-02-05 16:51:00,
2013-02-05 10:56:00,64.4,27.8,25.48,WNW,292,9.6,9.6,25,0.00,,---,0.00,VWS V14.01,2013-02-05 16:56:00,
2013-02-05 11:01:00,66.4,28.5,25.51,West,270,6.0,6.5,24,0.00,,---,0.00,VWS V14.01,2013-02-05 17:01:00,
2013-02-05 11:06:00,66.4,28.5,25.51,WSW,248,18.6,19.9,24,0.00,,---,0.00,VWS V14.01,2013-02-05 17:06:00,
2013-02-05 11:11:00,65.3,27.6,25.51,WNW,292,9.8,13.2,24,0.00,,---,0.00,VWS V14.01,2013-02-05 17:11:00,
2013-02-05 11:16:00,65.3,27.6,25.48,WNW,292,12.8,12.8,24,0.00,,---,0.00,VWS V14.01,2013-02-05 17:16:00,
2013-02-05 11:21:00,66.2,28.4,25.48,WNW,292,15.2,16.1,24,0.00,,---,0.00,VWS V14.01,2013-02-05 17:21:00,
2013-02-05 11:26:00,66.0,28.2,25.48,West,270,8.5,15.4,24,0.00,,---,0.00,VWS V14.01,2013-02-05 17:26:00,
2013-02-05 11:31:00,65.5,27.8,25.51,West,270,10.1,13.0,24,0.00,,---,0.00,VWS V14.01,2013-02-05 17:31:00,
2013-02-05 11:36:00,63.9,26.4,25.51,WSW,248,8.7,8.7,24,0.00,,---,0.00,VWS V14.01,2013-02-05 17:36:00,
2013-02-05 11:41:00,66.0,28.2,25.51,WNW,292,9.8,9.8,24,0.00,,---,0.00,VWS V14.01,2013-02-05 17:41:00,
2013-02-05 11:46:00,65.1,27.5,25.48,WSW,248,10.5,12.3,24,0.00,,---,0.00,VWS V14.01,2013-02-05 17:46:00,
2013-02-05 11:51:00,66.6,27.6,25.48,SW,225,7.8,7.8,23,0.00,,---,0.00,VWS V14.01,2013-02-05 17:51:00,
2013-02-05 11:56:00,67.8,28.7,25.48,West,270,12.8,12.8,23,0.00,,---,0.00,VWS V14.01,2013-02-05 17:56:00,
2013-02-05 12:01:00,67.1,28.1,25.48,WSW,248,6.5,9.4,23,0.00,,---,0.00,VWS V14.01,2013-02-05 18:01:00,
2013-02-05 12:06:00,66.2,27.3,25.48,WSW,248,8.7,15.2,23,0.00,,---,0.00,VWS V14.01,2013-02-05 18:06:00,
2013-02-05 12:11:00,67.3,28.2,25.48,WSW,248,13.0,13.0,23,0.00,,---,0.00,VWS V14.01,2013-02-05 18:11:00,
2013-02-05 12:16:00,67.8,28.7,25.48,WSW,248,13.2,13.2,23,0.00,,---,0.00,VWS V14.01,2013-02-05 18:16:00,
2013-02-05 12:21:00,66.9,27.9,25.48,WSW,248,22.4,22.4,23,0.00,,---,0.00,VWS V14.01,2013-02-05 18:21:00,
2013-02-05 12:26:00,67.6,28.5,25.48,SW,225,12.5,15.4,23,0.00,,---,0.00,VWS V14.01,2013-02-05 18:26:00,
2013-02-05 12:31:00,67.1,28.1,25.48,WNW,292,17.2,20.1,23,0.00,,---,0.00,VWS V14.01,2013-02-05 18:31:00,
2013-02-05 12:36:00,67.1,28.1,25.48,SW,225,10.1,13.2,23,0.00,,---,0.00,VWS V14.01,2013-02-05 18:36:00,
2013-02-05 12:41:00,68.9,28.5,25.48,West,270,12.5,12.8,22,0.00,,---,0.00,VWS V14.01,2013-02-05 18:41:00,
2013-02-05 12:46:00,68.7,28.4,25.45,WSW,248,15.9,15.9,22,0.00,,---,0.00,VWS V14.01,2013-02-05 18:46:00,
2013-02-05 12:51:00,68.5,28.2,25.45,SW,225,13.2,15.2,22,0.00,,---,0.00,VWS V14.01,2013-02-05 18:51:00,
2013-02-05 12:56:00,68.2,27.9,25.45,SSW,202,9.8,9.8,22,0.00,,---,0.00,VWS V14.01,2013-02-05 18:56:00,
2013-02-05 13:01:00,68.4,28.1,25.42,WSW,248,15.2,15.2,22,0.00,,---,0.00,VWS V14.01,2013-02-05 19:01:00,
2013-02-05 13:06:00,67.8,28.7,25.42,West,270,13.0,13.2,23,0.00,,---,0.00,VWS V14.01,2013-02-05 19:06:00,
2013-02-05 13:11:00,68.0,27.8,25.42,SW,225,14.5,19.9,22,0.00,,---,0.00,VWS V14.01,2013-02-05 19:11:00,
2013-02-05 13:16:00,67.5,27.3,25.42,WSW,248,15.4,17.5,22,0.00,,---,0.00,VWS V14.01,2013-02-05 19:16:00,
2013-02-05 13:21:00,67.6,27.5,25.42,WSW,248,19.9,23.0,22,0.00,,---,0.00,VWS V14.01,2013-02-05 19:21:00,
2013-02-05 13:26:00,68.0,27.8,25.42,SW,225,14.3,23.3,22,0.00,,---,0.00,VWS V14.01,2013-02-05 19:26:00,
2013-02-05 13:31:00,68.0,27.8,25.42,SW,225,16.3,16.3,22,0.00,,---,0.00,VWS V14.01,2013-02-05 19:31:00,
2013-02-05 13:36:00,69.3,28.8,25.42,WNW,292,12.5,13.0,22,0.00,,---,0.00,VWS V14.01,2013-02-05 19:36:00,
2013-02-05 13:41:00,69.3,28.8,25.42,West,270,12.5,12.5,22,0.00,,---,0.00,VWS V14.01,2013-02-05 19:41:00,
2013-02-05 13:46:00,68.7,28.4,25.42,WSW,248,12.3,13.9,22,0.00,,---,0.00,VWS V14.01,2013-02-05 19:46:00,
2013-02-05 13:51:00,68.7,28.4,25.42,West,270,8.7,15.4,22,0.00,,---,0.00,VWS V14.01,2013-02-05 19:51:00,
2013-02-05 13:56:00,69.3,28.8,25.42,West,270,13.2,13.2,22,0.00,,---,0.00,VWS V14.01,2013-02-05 19:56:00,
2013-02-05 14:01:00,68.5,28.2,25.39,WSW,248,10.3,16.6,22,0.00,,---,0.00,VWS V14.01,2013-02-05 20:01:00,
2013-02-05 14:06:00,69.8,29.3,25.39,SW,225,9.8,9.8,22,0.00,,---,0.00,VWS V14.01,2013-02-05 20:06:00,
2013-02-05 14:11:00,67.6,27.5,25.39,West,270,25.1,27.7,22,0.00,,---,0.00,VWS V14.01,2013-02-05 20:11:00,
2013-02-05 14:16:00,68.7,28.4,25.39,WSW,248,19.5,26.0,22,0.00,,---,0.00,VWS V14.01,2013-02-05 20:16:00,
2013-02-05 14:21:00,68.0,27.8,25.39,SW,225,17.2,17.2,22,0.00,,---,0.00,VWS V14.01,2013-02-05 20:21:00,
2013-02-05 14:26:00,68.0,27.8,25.39,West,270,15.4,17.7,22,0.00,,---,0.00,VWS V14.01,2013-02-05 20:26:00,
2013-02-05 14:31:00,69.3,28.8,25.37,SW,225,13.2,13.2,22,0.00,,---,0.00,VWS V14.01,2013-02-05 20:31:00,
2013-02-05 14:36:00,68.9,28.5,25.37,WSW,248,13.6,19.5,22,0.00,,---,0.00,VWS V14.01,2013-02-05 20:36:00,
2013-02-05 14:41:00,69.3,28.8,25.37,WSW,248,15.2,15.2,22,0.00,,---,0.00,VWS V14.01,2013-02-05 20:41:00,
2013-02-05 14:46:00,69.6,26.8,25.37,West,270,13.2,15.2,20,0.00,,---,0.00,VWS V14.01,2013-02-05 20:46:00,
2013-02-05 14:51:00,68.7,26.1,25.37,SW,225,7.8,12.3,20,0.00,,---,0.00,VWS V14.01,2013-02-05 20:51:00,
2013-02-05 14:56:00,69.3,26.5,25.37,WSW,248,19.9,19.9,20,0.00,,---,0.00,VWS V14.01,2013-02-05 20:56:00,
2013-02-05 15:01:00,68.7,26.1,25.37,WSW,248,13.6,13.6,20,0.00,,---,0.00,VWS V14.01,2013-02-05 21:01:00,
2013-02-05 15:06:00,68.2,25.6,25.37,West,270,16.3,19.7,20,0.00,,---,0.00,VWS V14.01,2013-02-05 21:06:00,
2013-02-05 15:11:00,68.2,25.6,25.37,West,270,18.1,20.6,20,0.00,,---,0.00,VWS V14.01,2013-02-05 21:11:00,
2013-02-05 15:16:00,68.4,25.8,25.37,West,270,16.1,20.4,20,0.00,,---,0.00,VWS V14.01,2013-02-05 21:16:00,
2013-02-05 15:21:00,67.8,25.3,25.37,WSW,248,19.9,22.8,20,0.00,,---,0.00,VWS V14.01,2013-02-05 21:21:00,
2013-02-05 15:26:00,68.0,25.5,25.37,WSW,248,14.3,15.2,20,0.00,,---,0.00,VWS V14.01,2013-02-05 21:26:00,
2013-02-05 15:31:00,68.2,25.6,25.37,West,270,12.3,12.3,20,0.00,,---,0.00,VWS V14.01,2013-02-05 21:31:00,
2013-02-05 15:36:00,69.3,26.5,25.37,WSW,248,9.8,10.7,20,0.00,,---,0.00,VWS V14.01,2013-02-05 21:36:00,
2013-02-05 15:41:00,68.9,26.2,25.37,West,270,15.4,19.5,20,0.00,,---,0.00,VWS V14.01,2013-02-05 21:41:00,
2013-02-05 15:46:00,68.4,25.8,25.37,West,270,8.7,12.8,20,0.00,,---,0.00,VWS V14.01,2013-02-05 21:46:00,
2013-02-05 15:51:00,68.9,26.2,25.37,WNW,292,14.8,14.8,20,0.00,,---,0.00,VWS V14.01,2013-02-05 21:51:00,
2013-02-05 15:56:00,68.2,25.6,25.37,WSW,248,12.5,17.7,20,0.00,,---,0.00,VWS V14.01,2013-02-05 21:56:00,
2013-02-05 16:01:00,68.7,26.1,25.37,WSW,248,13.2,13.2,20,0.00,,---,0.00,VWS V14.01,2013-02-05 22:01:00,
2013-02-05 16:06:00,69.1,26.4,25.37,West,270,12.5,12.5,20,0.00,,---,0.00,VWS V14.01,2013-02-05 22:06:00,
2013-02-05 16:11:00,68.4,25.8,25.37,WSW,248,12.3,12.3,20,0.00,,---,0.00,VWS V14.01,2013-02-05 22:11:00,
2013-02-05 16:16:00,67.6,25.2,25.37,SW,225,7.8,7.8,20,0.00,,---,0.00,VWS V14.01,2013-02-05 22:16:00,
2013-02-05 16:21:00,66.4,24.1,25.37,West,270,12.3,14.1,20,0.00,,---,0.00,VWS V14.01,2013-02-05 22:21:00,
2013-02-05 16:26:00,67.6,25.2,25.37,WSW,248,13.0,13.0,20,0.00,,---,0.00,VWS V14.01,2013-02-05 22:26:00,
2013-02-05 16:31:00,68.0,25.5,25.34,WSW,248,13.2,13.2,20,0.00,,---,0.00,VWS V14.01,2013-02-05 22:31:00,
2013-02-05 16:36:00,67.1,24.7,25.34,West,270,13.0,17.2,20,0.00,,---,0.00,VWS V14.01,2013-02-05 22:36:00,
2013-02-05 16:41:00,67.3,24.9,25.34,WSW,248,10.5,12.1,20,0.00,,---,0.00,VWS V14.01,2013-02-05 22:41:00,
2013-02-05 16:46:00,67.6,25.2,25.37,SW,225,17.7,17.7,20,0.00,,---,0.00,VWS V14.01,2013-02-05 22:46:00,
2013-02-05 16:51:00,67.8,25.3,25.37,West,270,14.8,14.8,20,0.00,,---,0.00,VWS V14.01,2013-02-05 22:51:00,
2013-02-05 16:56:00,68.5,25.9,25.37,WNW,292,6.3,6.3,20,0.00,,---,0.00,VWS V14.01,2013-02-05 22:56:00,
2013-02-05 17:01:00,67.8,25.3,25.37,WNW,292,10.3,10.3,20,0.00,,---,0.00,VWS V14.01,2013-02-05 23:01:00,
2013-02-05 17:06:00,67.5,25.0,25.37,NW,315,11.0,11.0,20,0.00,,---,0.00,VWS V14.01,2013-02-05 23:06:00,
2013-02-05 17:11:00,67.5,25.0,25.37,WSW,248,14.5,14.5,20,0.00,,---,0.00,VWS V14.01,2013-02-05 23:11:00,
2013-02-05 17:16:00,66.7,24.4,25.34,SW,225,11.9,11.9,20,0.00,,---,0.00,VWS V14.01,2013-02-05 23:16:00,
2013-02-05 17:21:00,66.9,24.6,25.34,SW,225,10.1,12.8,20,0.00,,---,0.00,VWS V14.01,2013-02-05 23:21:00,
2013-02-05 17:26:00,67.3,24.9,25.34,WSW,248,10.7,12.3,20,0.00,,---,0.00,VWS V14.01,2013-02-05 23:26:00,
2013-02-05 17:31:00,67.6,25.2,25.37,WSW,248,5.6,8.5,20,0.00,,---,0.00,VWS V14.01,2013-02-05 23:31:00,
2013-02-05 17:36:00,67.1,24.7,25.37,SW,225,7.6,10.7,20,0.00,,---,0.00,VWS V14.01,2013-02-05 23:36:00,
2013-02-05 17:41:00,67.1,24.7,25.37,SW,225,8.1,8.1,20,0.00,,---,0.00,VWS V14.01,2013-02-05 23:41:00,
2013-02-05 17:46:00,67.1,24.7,25.34,SW,225,6.3,6.3,20,0.00,,---,0.00,VWS V14.01,2013-02-05 23:46:00,
2013-02-05 17:51:00,66.7,24.4,25.34,WSW,248,10.7,10.7,20,0.00,,---,0.00,VWS V14.01,2013-02-05 23:51:00,
2013-02-05 17:56:00,66.2,24.0,25.34,SW,225,8.7,10.3,20,0.00,,---,0.00,VWS V14.01,2013-02-05 23:56:00,
2013-02-05 18:01:00,66.2,24.0,25.37,WSW,248,6.0,6.5,20,0.00,,---,0.00,VWS V14.01,2013-02-06 00:01:00,
2013-02-05 18:06:00,65.8,23.7,25.37,WNW,292,6.3,6.3,20,0.00,,---,0.00,VWS V14.01,2013-02-06 00:06:00,
2013-02-05 18:11:00,65.3,23.2,25.37,West,270,7.4,7.8,20,0.00,,---,0.00,VWS V14.01,2013-02-06 00:11:00,
2013-02-05 18:16:00,65.3,23.2,25.37,West,270,4.3,4.7,20,0.00,,---,0.00,VWS V14.01,2013-02-06 00:16:00,
2013-02-05 18:21:00,64.0,23.3,25.37,West,270,6.3,6.3,21,0.00,,---,0.00,VWS V14.01,2013-02-06 00:21:00,
2013-02-05 18:26:00,62.2,21.9,25.37,West,270,4.7,5.4,21,0.00,,---,0.00,VWS V14.01,2013-02-06 00:26:00,
2013-02-05 18:31:00,61.3,21.1,25.37,West,270,5.8,5.8,21,0.00,,---,0.00,VWS V14.01,2013-02-06 00:31:00,
2013-02-05 18:36:00,60.8,20.6,25.37,West,270,4.3,5.4,21,0.00,,---,0.00,VWS V14.01,2013-02-06 00:36:00,
2013-02-05 18:41:00,60.4,21.4,25.37,WSW,248,6.3,7.2,22,0.00,,---,0.00,VWS V14.01,2013-02-06 00:41:00,
2013-02-05 18:46:00,59.7,20.8,25.37,WSW,248,4.0,4.9,22,0.00,,---,0.00,VWS V14.01,2013-02-06 00:46:00,
2013-02-05 18:51:00,59.4,22.6,25.37,WSW,248,4.3,4.3,24,0.00,,---,0.00,VWS V14.01,2013-02-06 00:51:00,
2013-02-05 18:56:00,59.0,22.3,25.37,WSW,248,4.0,4.3,24,0.00,,---,0.00,VWS V14.01,2013-02-06 00:56:00,
2013-02-05 19:01:00,58.3,21.7,25.39,SW,225,3.6,4.0,24,0.00,,---,0.00,VWS V14.01,2013-02-06 01:01:00,
2013-02-05 19:06:00,57.6,21.1,25.39,SSW,202,2.9,3.6,24,0.00,,---,0.00,VWS V14.01,2013-02-06 01:06:00,
2013-02-05 19:11:00,57.2,20.8,25.39,SSW,202,2.9,2.9,24,0.00,,---,0.00,VWS V14.01,2013-02-06 01:11:00,
2013-02-05 19:16:00,56.7,21.3,25.39,South,180,3.1,3.1,25,0.00,,---,0.00,VWS V14.01,2013-02-06 01:16:00,
2013-02-05 19:21:00,56.3,21.0,25.39,SSE,158,4.0,5.4,25,0.00,,---,0.00,VWS V14.01,2013-02-06 01:21:00,
2013-02-05 19:26:00,56.1,20.8,25.39,South,180,1.6,3.8,25,0.00,,---,0.00,VWS V14.01,2013-02-06 01:26:00,
2013-02-05 19:31:00,55.6,20.3,25.39,South,180,1.6,1.6,25,0.00,,---,0.00,VWS V14.01,2013-02-06 01:31:00,
2013-02-05 19:36:00,55.8,20.5,25.39,South,180,1.6,1.6,25,0.00,,---,0.00,VWS V14.01,2013-02-06 01:36:00,
2013-02-05 19:41:00,55.6,20.3,25.39,SSE,158,4.5,4.5,25,0.00,,---,0.00,VWS V14.01,2013-02-06 01:41:00,
2013-02-05 19:46:00,53.6,19.6,25.39,ESE,112,4.9,4.9,26,0.00,,---,0.00,VWS V14.01,2013-02-06 01:46:00,
2013-02-05 19:51:00,52.7,19.7,25.39,ESE,112,4.9,4.9,27,0.00,,---,0.00,VWS V14.01,2013-02-06 01:51:00,
2013-02-05 19:56:00,52.5,19.5,25.39,SE,135,6.0,6.0,27,0.00,,---,0.00,VWS V14.01,2013-02-06 01:56:00,
2013-02-05 20:01:00,53.1,20.0,25.42,SE,135,6.0,6.0,27,0.00,,---,0.00,VWS V14.01,2013-02-06 02:01:00,
2013-02-05 20:06:00,54.1,20.0,25.42,SSE,158,4.9,4.9,26,0.00,,---,0.00,VWS V14.01,2013-02-06 02:06:00,
2013-02-05 20:11:00,54.9,20.6,25.42,SSE,158,5.4,5.8,26,0.00,,---,0.00,VWS V14.01,2013-02-06 02:11:00,
2013-02-05 20:16:00,55.6,21.3,25.42,SSE,158,4.5,4.5,26,0.00,,---,0.00,VWS V14.01,2013-02-06 02:16:00,
2013-02-05 20:21:00,54.9,20.6,25.42,SSE,158,4.5,4.5,26,0.00,,---,0.00,VWS V14.01,2013-02-06 02:21:00,
2013-02-05 20:26:00,54.3,20.2,25.42,South,180,1.6,1.6,26,0.00,,---,0.00,VWS V14.01,2013-02-06 02:26:00,
2013-02-05 20:31:00,53.6,19.6,25.42,South,180,3.8,3.8,26,0.00,,---,0.00,VWS V14.01,2013-02-06 02:31:00,
2013-02-05 20:36:00,52.7,19.7,25.42,South,180,3.8,3.8,27,0.00,,---,0.00,VWS V14.01,2013-02-06 02:36:00,
2013-02-05 20:41:00,52.3,19.4,25.42,South,180,3.8,3.8,27,0.00,,---,0.00,VWS V14.01,2013-02-06 02:41:00,
2013-02-05 20:46:00,53.4,20.3,25.42,South,180,3.6,3.6,27,0.00,,---,0.00,VWS V14.01,2013-02-06 02:46:00,
2013-02-05 20:51:00,53.2,20.1,25.42,South,180,3.6,3.6,27,0.00,,---,0.00,VWS V14.01,2013-02-06 02:51:00,
2013-02-05 20:56:00,53.1,20.0,25.42,South,180,3.4,3.4,27,0.00,,---,0.00,VWS V14.01,2013-02-06 02:56:00,
2013-02-05 21:01:00,52.7,19.7,25.42,South,180,3.6,3.6,27,0.00,,---,0.00,VWS V14.01,2013-02-06 03:01:00,
2013-02-05 21:06:00,52.5,20.4,25.42,South,180,1.6,1.6,28,0.00,,---,0.00,VWS V14.01,2013-02-06 03:06:00,
2013-02-05 21:11:00,52.5,20.4,25.42,South,180,1.6,1.6,28,0.00,,---,0.00,VWS V14.01,2013-02-06 03:11:00,
2013-02-05 21:16:00,53.1,20.8,25.42,SSE,158,5.4,5.4,28,0.00,,---,0.00,VWS V14.01,2013-02-06 03:16:00,
2013-02-05 21:21:00,51.8,19.8,25.42,SSE,158,5.4,5.4,28,0.00,,---,0.00,VWS V14.01,2013-02-06 03:21:00,
2013-02-05 21:26:00,51.4,19.4,25.42,ESE,112,5.4,5.4,28,0.00,,---,0.00,VWS V14.01,2013-02-06 03:26:00,
2013-02-05 21:31:00,51.6,20.4,25.42,ESE,112,5.4,5.4,29,0.00,,---,0.00,VWS V14.01,2013-02-06 03:31:00,
2013-02-05 21:36:00,51.8,19.8,25.42,ESE,112,6.0,6.0,28,0.00,,---,0.00,VWS V14.01,2013-02-06 03:36:00,
2013-02-05 21:41:00,52.9,20.7,25.42,ESE,112,6.0,6.0,28,0.00,,---,0.00,VWS V14.01,2013-02-06 03:41:00,
2013-02-05 21:46:00,53.2,21.0,25.42,SE,135,4.9,4.9,28,0.00,,---,0.00,VWS V14.01,2013-02-06 03:46:00,
2013-02-05 21:51:00,53.6,21.3,25.42,ESE,112,4.3,4.3,28,0.00,,---,0.00,VWS V14.01,2013-02-06 03:51:00,
2013-02-05 21:56:00,53.1,20.8,25.42,SSE,158,4.7,4.7,28,0.00,,---,0.00,VWS V14.01,2013-02-06 03:56:00,
2013-02-05 22:01:00,53.1,20.8,25.42,SSE,158,6.3,6.3,28,0.00,,---,0.00,VWS V14.01,2013-02-06 04:01:00,
2013-02-05 22:06:00,53.4,21.1,25.42,SSE,158,3.4,3.4,28,0.00,,---,0.00,VWS V14.01,2013-02-06 04:06:00,
2013-02-05 22:11:00,54.3,21.9,25.42,SSE,158,7.2,7.2,28,0.00,,---,0.00,VWS V14.01,2013-02-06 04:11:00,
2013-02-05 22:16:00,54.1,21.8,25.42,SSE,158,3.4,3.4,28,0.00,,---,0.00,VWS V14.01,2013-02-06 04:16:00,
2013-02-05 22:21:00,51.8,19.8,25.42,NNE,22,1.1,2.5,28,0.00,,---,0.00,VWS V14.01,2013-02-06 04:21:00,
2013-02-05 22:26:00,50.4,18.5,25.42,WNW,292,2.0,2.0,28,0.00,,---,0.00,VWS V14.01,2013-02-06 04:26:00,
2013-02-05 22:31:00,48.4,17.6,25.39,East,90,2.9,2.9,29,0.00,,---,0.00,VWS V14.01,2013-02-06 04:31:00,
2013-02-05 22:36:00,47.3,18.2,25.39,ESE,112,4.9,4.9,31,0.00,,---,0.00,VWS V14.01,2013-02-06 04:36:00,
2013-02-05 22:41:00,47.8,20.1,25.39,ESE,112,6.0,6.0,33,0.00,,---,0.00,VWS V14.01,2013-02-06 04:41:00,
2013-02-05 22:46:00,49.1,21.3,25.42,ESE,112,4.0,4.0,33,0.00,,---,0.00,VWS V14.01,2013-02-06 04:46:00,
2013-02-05 22:51:00,49.6,21.7,25.42,ESE,112,4.3,4.3,33,0.00,,---,0.00,VWS V14.01,2013-02-06 04:51:00,
2013-02-05 22:56:00,49.6,21.7,25.42,ESE,112,4.0,4.0,33,0.00,,---,0.00,VWS V14.01,2013-02-06 04:56:00,
2013-02-05 23:00:00,49.6,21.7,25.42,ESE,112,4.7,4.7,33,0.00,,---,0.00,VWS V14.01,2013-02-06 05:00:00,
2013-02-05 23:05:00,49.5,21.6,25.42,SE,135,4.9,4.9,33,0.00,,---,0.00,VWS V14.01,2013-02-06 05:05:00,
2013-02-05 23:10:00,49.5,21.6,25.42,SE,135,3.8,3.8,33,0.00,,---,0.00,VWS V14.01,2013-02-06 05:10:00,
2013-02-05 23:15:00,49.6,21.7,25.42,SSE,158,2.5,2.5,33,0.00,,---,0.00,VWS V14.01,2013-02-06 05:15:00,
2013-02-05 23:20:00,48.7,20.9,25.42,SSE,158,2.5,2.5,33,0.00,,---,0.00,VWS V14.01,2013-02-06 05:20:00,
2013-02-05 23:25:00,48.2,20.5,25.42,South,180,2.9,4.3,33,0.00,,---,0.00,VWS V14.01,2013-02-06 05:25:00,
2013-02-05 23:30:00,48.0,21.7,25.42,South,180,4.0,4.0,35,0.00,,---,0.00,VWS V14.01,2013-02-06 05:30:00,
2013-02-05 23:35:00,47.8,21.5,25.42,South,180,4.0,4.0,35,0.00,,---,0.00,VWS V14.01,2013-02-06 05:35:00,
2013-02-05 23:40:00,47.5,21.9,25.42,South,180,4.3,4.3,36,0.00,,---,0.00,VWS V14.01,2013-02-06 05:40:00,
2013-02-05 23:45:00,47.1,22.2,25.42,South,180,4.3,4.3,37,0.00,,---,0.00,VWS V14.01,2013-02-06 05:45:00,
2013-02-05 23:50:00,48.2,22.5,25.42,South,180,4.3,4.3,36,0.00,,---,0.00,VWS V14.01,2013-02-06 05:50:00,
2013-02-05 23:55:00,48.7,23.0,25.42,South,180,3.8,3.8,36,0.00,,---,0.00,VWS V14.01,2013-02-06 05:55:00,